Time,TemperatureF,DewpointF,PressureIn,WindDirection,WindDirectionDegrees,WindSpeedMPH,WindSpeedGustMPH,Humidity,HourlyPrecipIn,Conditions,Clouds,dailyrainin,SoftwareType,DateUTC
2013-03-25 00:36:00,24.2,-4.0,30.04,North,7,0.0,-999.0,29,-99.99,,,0.00,weatherlink.com 1.10,2013-03-25 06:36:00,
2013-03-25 00:51:00,23.6,-4.0,30.06,North,8,0.0,-999.0,30,-99.99,,,0.00,weatherlink.com 1.10,2013-03-25 06:51:00,
2013-03-25 01:06:00,24.8,-3.0,30.06,North,8,0.0,-999.0,29,-99.99,,,0.00,weatherlink.com 1.10,2013-03-25 07:06:00,
2013-03-25 01:21:00,25.1,-3.0,30.05,North,7,0.0,-999.0,29,-99.99,,,0.00,weatherlink.com 1.10,2013-03-25 07:21:00,
2013-03-25 01:36:00,24.7,-4.0,30.05,North,8,0.0,-999.0,29,-99.99,,,0.00,weatherlink.com 1.10,2013-03-25 07:36:00,
2013-03-25 01:51:00,23.6,-3.0,30.05,North,8,0.0,-999.0,31,-99.99,,,0.00,weatherlink.com 1.10,2013-03-25 07:51:00,
2013-03-25 02:06:00,21.0,-4.0,30.06,North,8,0.0,-999.0,33,-99.99,,,0.00,weatherlink.com 1.10,2013-03-25 08:06:00,
2013-03-25 02:21:00,20.6,-3.0,30.06,North,8,2.0,-999.0,35,-99.99,,,0.00,weatherlink.com 1.10,2013-03-25 08:21:00,
2013-03-25 02:37:00,19.7,-4.0,30.06,North,8,0.0,-999.0,35,-99.99,,,0.00,weatherlink.com 1.10,2013-03-25 08:37:00,
2013-03-25 02:52:00,17.7,-3.0,30.09,North,8,2.0,-999.0,40,-99.99,,,0.00,weatherlink.com 1.10,2013-03-25 08:52:00,
2013-03-25 03:07:00,16.7,-2.0,30.08,North,8,2.0,-999.0,43,-99.99,,,0.00,weatherlink.com 1.10,2013-03-25 09:07:00,
2013-03-25 03:22:00,15.6,-3.0,30.08,North,8,0.0,-999.0,43,-99.99,,,0.00,weatherlink.com 1.10,2013-03-25 09:22:00,
2013-03-25 03:37:00,14.9,-3.0,30.10,North,7,1.0,-999.0,45,-99.99,,,0.00,weatherlink.com 1.10,2013-03-25 09:37:00,
2013-03-25 03:52:00,14.8,-3.0,30.10,North,7,0.0,-999.0,45,-99.99,,,0.00,weatherlink.com 1.10,2013-03-25 09:52:00,
2013-03-25 04:07:00,15.6,-3.0,30.10,North,7,0.0,-999.0,44,-99.99,,,0.00,weatherlink.com 1.10,2013-03-25 10:07:00,
2013-03-25 04:22:00,14.4,-3.0,30.10,North,7,0.0,-999.0,46,-99.99,,,0.00,weatherlink.com 1.10,2013-03-25 10:22:00,
2013-03-25 04:37:00,13.1,-4.0,30.10,North,7,0.0,-999.0,47,-99.99,,,0.00,weatherlink.com 1.10,2013-03-25 10:37:00,
2013-03-25 04:52:00,13.5,-3.0,30.11,North,7,0.0,-999.0,49,-99.99,,,0.00,weatherlink.com 1.10,2013-03-25 10:52:00,
2013-03-25 05:07:00,12.4,-4.0,30.12,North,7,0.0,-999.0,49,-99.99,,,0.00,weatherlink.com 1.10,2013-03-25 11:07:00,
2013-03-25 05:23:00,12.1,-3.0,30.14,North,7,3.0,-999.0,50,-99.99,,,0.00,weatherlink.com 1.10,2013-03-25 11:23:00,
2013-03-25 05:38:00,13.1,-4.0,30.13,North,7,0.0,-999.0,47,-99.99,,,0.00,weatherlink.com 1.10,2013-03-25 11:38:00,
2013-03-25 05:53:00,12.4,-4.0,30.13,North,7,0.0,-999.0,49,-99.99,,,0.00,weatherlink.com 1.10,2013-03-25 11:53:00,
2013-03-25 06:09:00,12.4,-3.0,30.14,North,7,0.0,-999.0,50,-99.99,,,0.00,weatherlink.com 1.10,2013-03-25 12:09:00,
2013-03-25 06:24:00,11.4,-3.0,30.14,North,7,0.0,-999.0,52,-99.99,,,0.00,weatherlink.com 1.10,2013-03-25 12:24:00,
2013-03-25 06:39:00,11.6,-3.0,30.14,North,7,0.0,-999.0,52,-99.99,,,0.00,weatherlink.com 1.10,2013-03-25 12:39:00,
2013-03-25 06:53:00,11.6,-3.0,30.17,North,7,0.0,-999.0,51,-99.99,,,0.00,weatherlink.com 1.10,2013-03-25 12:53:00,
2013-03-25 07:08:00,10.9,-3.0,30.18,North,7,5.0,-999.0,53,-99.99,,,0.00,weatherlink.com 1.10,2013-03-25 13:08:00,
2013-03-25 07:25:00,11.2,-3.0,30.20,North,7,2.0,-999.0,54,-99.99,,,0.00,weatherlink.com 1.10,2013-03-25 13:25:00,
2013-03-25 07:39:00,12.6,-2.0,30.22,North,7,2.0,-999.0,53,-99.99,,,0.00,weatherlink.com 1.10,2013-03-25 13:39:00,
2013-03-25 07:55:00,15.2,-1.0,30.21,North,7,2.0,-999.0,50,-99.99,,,0.00,weatherlink.com 1.10,2013-03-25 13:55:00,
2013-03-25 08:09:00,18.6,1.0,30.19,North,8,2.0,-999.0,47,-99.99,,,0.00,weatherlink.com 1.10,2013-03-25 14:09:00,
2013-03-25 08:24:00,20.3,2.0,30.19,North,8,1.0,-999.0,45,-99.99,,,0.00,weatherlink.com 1.10,2013-03-25 14:24:00,
2013-03-25 08:40:00,22.4,2.0,30.18,NNE,31,3.0,-999.0,41,-99.99,,,0.00,weatherlink.com 1.10,2013-03-25 14:40:00,
2013-03-25 08:54:00,25.3,2.0,30.17,NNE,31,1.0,-999.0,36,-99.99,,,0.00,weatherlink.com 1.10,2013-03-25 14:54:00,
2013-03-25 09:10:00,29.3,2.0,30.15,NNE,31,0.0,-999.0,31,-99.99,,,0.00,weatherlink.com 1.10,2013-03-25 15:10:00,
2013-03-25 09:25:00,32.1,2.0,30.16,NNE,31,0.0,-999.0,28,-99.99,,,0.00,weatherlink.com 1.10,2013-03-25 15:25:00,
2013-03-25 09:40:00,32.9,1.0,30.15,NNE,31,0.0,-999.0,26,-99.99,,,0.00,weatherlink.com 1.10,2013-03-25 15:40:00,
2013-03-25 09:55:00,35.5,2.0,30.13,NE,35,1.0,-999.0,24,-99.99,,,0.00,weatherlink.com 1.10,2013-03-25 15:55:00,
2013-03-25 10:11:00,35.9,2.0,30.13,SSE,160,1.0,-999.0,24,-99.99,,,0.00,weatherlink.com 1.10,2013-03-25 16:11:00,
2013-03-25 10:25:00,36.9,2.0,30.13,South,189,0.0,-999.0,23,-99.99,,,0.00,weatherlink.com 1.10,2013-03-25 16:25:00,
2013-03-25 10:42:00,38.6,3.0,30.12,SW,221,0.0,-999.0,22,-99.99,,,0.00,weatherlink.com 1.10,2013-03-25 16:42:00,
2013-03-25 10:57:00,40.5,3.0,30.11,SW,229,2.0,-999.0,21,-99.99,,,0.00,weatherlink.com 1.10,2013-03-25 16:57:00,
2013-03-25 11:11:00,41.3,2.0,30.10,WSW,249,3.0,-999.0,19,-99.99,,,0.00,weatherlink.com 1.10,2013-03-25 17:11:00,
2013-03-25 11:26:00,41.8,2.0,30.11,SW,220,4.0,-999.0,19,-99.99,,,0.00,weatherlink.com 1.10,2013-03-25 17:26:00,
2013-03-25 11:42:00,42.5,2.0,30.10,WSW,251,6.0,-999.0,18,-99.99,,,0.00,weatherlink.com 1.10,2013-03-25 17:42:00,
2013-03-25 11:57:00,43.1,2.0,30.10,SW,233,7.0,-999.0,18,-99.99,,,0.00,weatherlink.com 1.10,2013-03-25 17:57:00,
2013-03-25 12:12:00,43.6,2.0,30.09,WSW,242,2.0,-999.0,18,-99.99,,,0.00,weatherlink.com 1.10,2013-03-25 18:12:00,
2013-03-25 12:27:00,44.8,2.0,30.09,West,265,10.0,-999.0,17,-99.99,,,0.00,weatherlink.com 1.10,2013-03-25 18:27:00,
2013-03-25 12:43:00,44.8,1.0,30.07,SW,232,3.0,-999.0,16,-99.99,,,0.00,weatherlink.com 1.10,2013-03-25 18:43:00,
2013-03-25 12:59:00,46.5,1.0,30.06,NW,323,4.0,-999.0,15,-99.99,,,0.00,weatherlink.com 1.10,2013-03-25 18:59:00,
2013-03-25 13:44:00,49.6,4.0,30.05,WSW,250,11.0,-999.0,15,-99.99,,,0.00,weatherlink.com 1.10,2013-03-25 19:44:00,
2013-03-25 13:59:00,48.5,4.0,30.03,WSW,255,10.0,-999.0,16,-99.99,,,0.00,weatherlink.com 1.10,2013-03-25 19:59:00,
2013-03-25 14:14:00,49.9,4.0,30.03,WNW,286,7.0,-999.0,15,-99.99,,,0.00,weatherlink.com 1.10,2013-03-25 20:14:00,
2013-03-25 14:29:00,49.5,5.0,30.05,West,271,13.0,-999.0,16,-99.99,,,0.00,weatherlink.com 1.10,2013-03-25 20:29:00,
2013-03-25 14:44:00,49.6,5.0,30.05,West,260,12.0,-999.0,16,-99.99,,,0.00,weatherlink.com 1.10,2013-03-25 20:44:00,
2013-03-25 14:59:00,49.6,5.0,30.05,SSW,210,13.0,-999.0,16,-99.99,,,0.00,weatherlink.com 1.10,2013-03-25 20:59:00,
2013-03-25 15:15:00,49.9,6.0,30.05,WSW,257,12.0,-999.0,17,-99.99,,,0.00,weatherlink.com 1.10,2013-03-25 21:15:00,
2013-03-25 15:30:00,50.2,5.0,30.06,West,273,9.0,-999.0,16,-99.99,,,0.00,weatherlink.com 1.10,2013-03-25 21:30:00,
2013-03-25 15:44:00,50.8,6.0,30.05,WSW,246,15.0,-999.0,16,-99.99,,,0.00,weatherlink.com 1.10,2013-03-25 21:44:00,
2013-03-25 16:00:00,50.7,6.0,30.04,WSW,250,12.0,-999.0,16,-99.99,,,0.00,weatherlink.com 1.10,2013-03-25 22:00:00,
2013-03-25 16:15:00,51.3,6.0,30.04,West,274,5.0,-999.0,16,-99.99,,,0.00,weatherlink.com 1.10,2013-03-25 22:15:00,
2013-03-25 16:30:00,52.0,7.0,30.04,WSW,250,6.0,-999.0,16,-99.99,,,0.00,weatherlink.com 1.10,2013-03-25 22:30:00,
2013-03-25 16:45:00,52.2,7.0,30.04,West,264,6.0,-999.0,16,-99.99,,,0.00,weatherlink.com 1.10,2013-03-25 22:45:00,
2013-03-25 17:01:00,51.6,7.0,30.04,WSW,256,7.0,-999.0,16,-99.99,,,0.00,weatherlink.com 1.10,2013-03-25 23:01:00,
2013-03-25 17:16:00,51.4,6.0,30.04,SSW,210,7.0,-999.0,16,-99.99,,,0.00,weatherlink.com 1.10,2013-03-25 23:16:00,
2013-03-25 17:30:00,52.2,7.0,30.04,West,278,11.0,-999.0,16,-99.99,,,0.00,weatherlink.com 1.10,2013-03-25 23:30:00,
2013-03-25 18:01:00,51.1,7.0,30.05,West,273,9.0,-999.0,17,-99.99,,,0.00,weatherlink.com 1.10,2013-03-26 00:01:00,
2013-03-25 18:16:00,51.0,7.0,30.06,West,279,10.0,-999.0,17,-99.99,,,0.00,weatherlink.com 1.10,2013-03-26 00:16:00,
2013-03-25 18:31:00,50.4,7.0,30.08,West,271,4.0,-999.0,17,-99.99,,,0.00,weatherlink.com 1.10,2013-03-26 00:31:00,
2013-03-25 18:47:00,49.6,6.0,30.08,WNW,282,3.0,-999.0,17,-99.99,,,0.00,weatherlink.com 1.10,2013-03-26 00:47:00,
2013-03-25 19:02:00,48.9,7.0,30.09,West,274,4.0,-999.0,18,-99.99,,,0.00,weatherlink.com 1.10,2013-03-26 01:02:00,
2013-03-25 19:17:00,47.6,7.0,30.07,West,275,5.0,-999.0,19,-99.99,,,0.00,weatherlink.com 1.10,2013-03-26 01:17:00,
2013-03-25 19:31:00,46.0,7.0,30.09,West,275,2.0,-999.0,20,-99.99,,,0.00,weatherlink.com 1.10,2013-03-26 01:31:00,
2013-03-25 19:47:00,44.2,6.0,30.10,West,275,0.0,-999.0,21,-99.99,,,0.00,weatherlink.com 1.10,2013-03-26 01:47:00,
2013-03-25 20:02:00,43.1,6.0,30.10,West,275,0.0,-999.0,22,-99.99,,,0.00,weatherlink.com 1.10,2013-03-26 02:02:00,
2013-03-25 20:17:00,41.3,6.0,30.05,West,275,0.0,-999.0,23,-99.99,,,0.00,weatherlink.com 1.10,2013-03-26 02:17:00,
2013-03-25 20:32:00,40.2,6.0,30.07,West,275,0.0,-999.0,24,-99.99,,,0.00,weatherlink.com 1.10,2013-03-26 02:32:00,
2013-03-25 20:47:00,39.6,5.0,30.08,West,275,0.0,-999.0,24,-99.99,,,0.00,weatherlink.com 1.10,2013-03-26 02:47:00,
2013-03-25 21:02:00,39.1,6.0,30.08,West,275,0.0,-999.0,25,-99.99,,,0.00,weatherlink.com 1.10,2013-03-26 03:02:00,
2013-03-25 21:17:00,37.0,5.0,30.04,West,275,0.0,-999.0,26,-99.99,,,0.00,weatherlink.com 1.10,2013-03-26 03:17:00,
2013-03-25 21:32:00,34.3,4.0,30.06,West,275,2.0,-999.0,28,-99.99,,,0.00,weatherlink.com 1.10,2013-03-26 03:32:00,
2013-03-25 21:47:00,32.9,5.0,30.08,West,275,2.0,-999.0,31,-99.99,,,0.00,weatherlink.com 1.10,2013-03-26 03:47:00,
2013-03-25 22:02:00,33.5,6.0,30.07,West,275,4.0,-999.0,32,-99.99,,,0.00,weatherlink.com 1.10,2013-03-26 04:02:00,
2013-03-25 22:17:00,32.5,6.0,30.05,West,275,0.0,-999.0,33,-99.99,,,0.00,weatherlink.com 1.10,2013-03-26 04:17:00,
2013-03-25 22:32:00,31.2,8.0,30.07,West,275,3.0,-999.0,37,-99.99,,,0.00,weatherlink.com 1.10,2013-03-26 04:32:00,
2013-03-25 22:47:00,30.4,6.0,30.07,West,275,3.0,-999.0,36,-99.99,,,0.00,weatherlink.com 1.10,2013-03-26 04:47:00,
2013-03-25 23:02:00,30.4,6.0,30.08,West,275,2.0,-999.0,36,-99.99,,,0.00,weatherlink.com 1.10,2013-03-26 05:02:00,
2013-03-25 23:18:00,30.4,5.0,30.05,West,275,2.0,-999.0,34,-99.99,,,0.00,weatherlink.com 1.10,2013-03-26 05:18:00,
2013-03-25 23:33:00,29.1,5.0,30.06,West,275,3.0,-999.0,35,-99.99,,,0.00,weatherlink.com 1.10,2013-03-26 05:33:00,
2013-03-25 23:48:00,28.4,6.0,30.08,West,275,0.0,-999.0,38,-99.99,,,0.00,weatherlink.com 1.10,2013-03-26 05:48:00,